KI5QWQ Weather Reports


time (UTC)temp
C
wind
direction
speed
KPH
gust
KPH
rain 1hr
cm
rain 24hr
cm
rain mn
cm
humidity
%
barometer
mb
20260504181400 -17 224 4.8 6.4 0.00 0.00 0.00 1015.7
20260504180859 -17 236 3.2 11.3 0.00 0.00 0.00 1015.7
20260504180357 -17 216 4.8 9.7 0.00 0.00 0.00 1015.9
20260504175855 -17 222 4.8 14.5 0.00 0.00 0.00 1016.2
20260504175351 -17 217 4.8 4.8 0.00 0.00 0.00 1016.2
20260504174849 -17 217 4.8 6.4 0.00 0.00 0.00 1016.3
20260504174347 -17 216 1.6 14.5 0.00 0.00 0.00 1016.4
20260504173844 -17 261 3.2 4.8 0.00 0.00 0.00 1016.2
20260504173340 -17 226 3.2 9.7 0.00 0.00 0.00 1016.5
20260504172837 -17 221 3.2 9.7 0.00 0.00 0.00 1016.4
20260504172334 -17 165 3.2 11.3 0.00 0.00 0.00 1016.6
20260504171830 -17 256 6.4 11.3 0.00 0.00 0.00 1017.0
20260504171327 -17 237 6.4 8.0 0.00 0.00 0.00 1016.9
20260504170824 -17 199 3.2 12.9 0.00 0.00 0.00 1017.1
20260504170321 -17 264 3.2 8.0 0.00 0.00 0.00 1017.2
20260504160239 -17 225 4.8 9.7 0.00 0.00 0.00 1017.4
20260504150705 -17 172 3.2 12.9 0.00 0.00 0.00 1017.8
20260504150201 -17 193 3.2 8.0 0.00 0.00 0.00 1017.9
20260504141131 -17 142 8.0 12.9 0.00 0.00 0.00 1018.2
20260504140627 -17 230 3.2 14.5 0.00 0.00 0.00 1018.1
20260504140123 -17 212 4.8 8.0 0.00 0.00 0.00 1018.1
20260504130551 -17 199 3.2 11.3 0.00 0.00 0.00 1018.1
20260504110439 -17 156 0.0 4.8 0.00 0.00 0.00 1017.6
20260504100355 -17 155 0.0 3.2 0.00 0.00 0.00 1017.9
20260504081748 -17 191 4.8 8.0 0.00 0.00 0.00 1018.1
20260504081245 -17 207 1.6 4.8 0.00 0.00 0.00 1018.5
20260504080741 -17 160 0.0 4.8 0.00 0.00 0.00 1018.5
20260504080238 -17 153 4.8 6.4 0.00 0.00 0.00 1018.2
20260504070205 -17 192 3.2 9.7 0.00 0.00 0.00 1019.5
20260504060126 -17 160 3.2 16.1 0.00 0.00 0.00 1020.1
20260504050554 -17 196 0.0 6.4 0.00 0.00 0.00 1020.3
20260504045548 -17 83 0.0 4.8 0.00 0.00 0.00 1020.3
20260504045043 -17 117 0.0 4.8 0.00 0.00 0.00 1020.1
20260504044541 -17 214 0.0 4.8 0.00 0.00 0.00 1020.5
20260504044038 -17 172 0.0 8.0 0.00 0.00 0.00 1020.5
20260504043534 -17 158 0.0 3.2 0.00 0.00 0.00 1020.5
20260504043032 -17 145 0.0 11.3 0.00 0.00 0.00 1020.5
20260504042529 -17 215 4.8 6.4 0.00 0.00 0.00 1020.5
20260504042026 -17 159 0.0 6.4 0.00 0.00 0.00 1020.5
20260504041522 -17 193 3.2 6.4 0.00 0.00 0.00 1020.5
20260504041018 -17 167 3.2 6.4 0.00 0.00 0.00 1020.4
20260504040516 -17 153 3.2 3.2 0.00 0.00 0.00 1020.4
20260504040013 -17 142 0.0 3.2 0.00 0.00 0.00 1020.5
20260504035509 -17 131 1.6 1.6 0.00 0.00 0.00 1020.5
20260504035005 -17 130 0.0 1.6 0.00 0.00 0.00 1020.4
20260504034503 -17 89 0.0 3.2 0.00 0.00 0.00 1020.7
20260504034000 -17 205 0.0 1.6 0.00 0.00 0.00 1020.7
20260504033457 -17 224 0.0 1.6 0.00 0.00 0.00 1020.6
20260504032955 -17 126 0.0 1.6 0.00 0.00 0.00 1020.3
20260504032452 -17 125 0.0 3.2 0.00 0.00 0.00 1020.3
20260504031948 -17 150 0.0 3.2 0.00 0.00 0.00 1020.3
20260504031445 -17 224 0.0 1.6 0.00 0.00 0.00 1020.5
20260504030942 -17 50 0.0 3.2 0.00 0.00 0.00
20260504030439 -17 104 0.0 3.2 0.00 0.00 0.00
20260504025935 -17 142 0.0 3.2 0.00 0.00 0.00
20260504025432 -17 154 0.0 0.0 0.00 0.00 0.00
20260504024929 -17 217 0.0 3.2 0.00 0.00 0.00
20260504024426 -17 89 0.0 1.6 0.00 0.00 0.00
20260504023923 -17 199 0.0 3.2 0.00 0.00 0.00
20260504023419 -17 163 0.0 1.6 0.00 0.00 0.00
20260504022915 -17 219 0.0 1.6 0.00 0.00 0.00
20260504022412 -17 135 0.0 1.6 0.00 0.00 0.00
20260504021908 -17 235 0.0 1.6 0.00 0.00 0.00 1019.5
20260504021406 -17 117 0.0 1.6 0.00 0.00 0.00 1019.5
20260504020903 -17 136 0.0 1.6 0.00 0.00 0.00 1019.5
20260504020359 -17 217 0.0 1.6 0.00 0.00 0.00 1019.5
20260504015855 -17 117 0.0 1.6 0.00 0.00 0.00 1019.5
20260504015352 -17 212 0.0 1.6 0.00 0.00 0.00 1019.5
20260504014848 -17 117 0.0 1.6 0.00 0.00 0.00 1019.5
20260504014344 -17 297 0.0 1.6 0.00 0.00 0.00 1019.5
20260504013842 -17 245 0.0 1.6 0.00 0.00 0.00 1019.5
20260504013339 -17 309 0.0 1.6 0.00 0.00 0.00 1019.5
20260504012836 -17 142 0.0 1.6 0.00 0.00 0.00 1019.5
20260504012334 -17 164 0.0 0.0 0.00 0.00 0.00 1019.5
20260504011831 -17 124 0.0 1.6 0.00 0.00 0.00 1019.2
20260504011327 -17 173 0.0 1.6 0.00 0.00 0.00 1019.2
20260504010823 -17 235 0.0 1.6 0.00 0.00 0.00 1019.2
20260504010319 -17 205 0.0 1.6 0.00 0.00 0.00 1019.2
20260504005816 -17 230 0.0 9.7 0.00 0.00 0.00 1019.2
20260504005313 -17 148 3.2 6.4 0.00 0.00 0.00 1019.2
20260504004810 -17 256 0.0 1.6 0.00 0.00 0.00 1019.2
20260504004308 -17 227 1.6 3.2 0.00 0.00 0.00 1019.5
20260504003804 -17 222 1.6 4.8 0.00 0.00 0.00 1019.5
20260504003301 -17 196 0.0 6.4 0.00 0.00 0.00 1019.5
20260504002757 -17 185 0.0 3.2 0.00 0.00 0.00 1019.5
20260504002255 -17 186 0.0 1.6 0.00 0.00 0.00 1019.9
20260504001752 -17 169 1.6 4.8 0.00 0.00 0.00 1019.9
20260504001249 -17 119 1.6 4.8 0.00 0.00 0.00 1019.9
20260504000746 -17 192 0.0 4.8 0.00 0.00 0.00 1019.9
20260504000243 -17 195 0.0 8.0 0.00 0.00 0.00 1019.9
20260503235741 -17 217 0.0 6.4 0.00 0.00 0.00
20260503235238 -17 217 0.0 8.0 0.00 0.00 0.00
20260503234735 -17 224 0.0 3.2 0.00 0.00 0.00
20260503234233 -17 192 0.0 3.2 0.00 0.00 0.00
20260503233730 -17 201 3.2 4.8 0.00 0.00 0.00
20260503233226 -17 196 3.2 4.8 0.00 0.00 0.00
20260503232723 -17 170 0.0 4.8 0.00 0.00 0.00
20260503232220 -17 161 0.0 8.0 0.00 0.00 0.00
20260503231719 -17 228 0.0 3.2 0.00 0.00 0.00
20260503231215 -17 227 0.0 9.7 0.00 0.00 0.00
20260503230711 -17 218 1.6 4.8 0.00 0.00 0.00 1020.6
20260503230209 -17 214 1.6 4.8 0.00 0.00 0.00 1020.6
20260503225706 -17 214 3.2 8.0 0.00 0.00 0.00 1020.6
20260503225206 -17 139 4.8 9.7 0.00 0.00 0.00 1020.6
20260503224703 -17 202 0.0 3.2 0.00 0.00 0.00 1020.6
20260503224201 -17 156 0.0 3.2 0.00 0.00 0.00 1020.6
20260503223659 -17 206 3.2 6.4 0.00 0.00 0.00 1020.6
20260503223155 -17 227 3.2 8.0 0.00 0.00 0.00 1020.6
20260503222652 -17 123 3.2 8.0 0.00 0.00 0.00 1020.6
20260503222150 -17 150 6.4 12.9 0.00 0.00 0.00 1020.6
20260503221648 -17 294 3.2 11.3 0.00 0.00 0.00 1020.6
20260503221145 -17 228 1.6 4.8 0.00 0.00 0.00 1020.6
20260503220642 -17 215 0.0 12.9 0.00 0.00 0.00 1020.7
20260503220138 -17 219 3.2 6.4 0.00 0.00 0.00 1020.6
20260503215636 -17 237 1.6 3.2 0.00 0.00 0.00 1021.1
20260503215132 -17 180 3.2 11.3 0.00 0.00 0.00 1021.1
20260503214631 -17 224 0.0 4.8 0.00 0.00 0.00 1021.1
20260503214126 -17 170 4.8 9.7 0.00 0.00 0.00 1021.1
20260503213620 -17 209 4.8 4.8 0.00 0.00 0.00 1021.2
20260503213116 -17 148 1.6 3.2 0.00 0.00 0.00 1021.3
20260503212614 -17 96 0.0 6.4 0.00 0.00 0.00 1021.3
20260503212111 -17 190 4.8 4.8 0.00 0.00 0.00 1021.8
20260503211609 -17 151 3.2 6.4 0.00 0.00 0.00 1021.8
20260503211104 -17 187 1.6 12.9 0.00 0.00 0.00 1021.8
20260503210601 -17 263 4.8 6.4 0.00 0.00 0.00 1021.8
20260503210056 -17 163 3.2 6.4 0.00 0.00 0.00 1021.8
20260503205553 -17 151 8.0 22.5 0.00 0.00 0.00 1021.8
20260503205049 -17 196 3.2 4.8 0.00 0.00 0.00 1022.2
20260503204547 -17 185 4.8 14.5 0.00 0.00 0.00 1022.2
20260503204044 -17 179 3.2 4.8 0.00 0.00 0.00 1022.4
20260503203541 -17 208 1.6 8.0 0.00 0.00 0.00 1022.4
20260503203038 -17 245 3.2 11.3 0.00 0.00 0.00 1022.4
20260503202536 -17 188 8.0 12.9 0.00 0.00 0.00 1022.6
20260503202034 -17 160 3.2 4.8 0.00 0.00 0.00 1022.7
20260503201532 -17 218 1.6 6.4 0.00 0.00 0.00 1022.9
20260503201028 -17 168 3.2 12.9 0.00 0.00 0.00 1022.9
20260503200524 -17 182 3.2 12.9 0.00 0.00 0.00 1022.9
20260503200021 -17 127 4.8 11.3 0.00 0.00 0.00 1022.9
20260503195519 -17 233 3.2 11.3 0.00 0.00 0.00 1022.9
20260503195015 -17 214 4.8 9.7 0.00 0.00 0.00 1022.9
20260503194513 -17 171 6.4 12.9 0.00 0.00 0.00 1022.9
20260503194012 -17 189 1.6 9.7 0.00 0.00 0.00 1023.3
20260503193509 -17 104 1.6 4.8 0.00 0.00 0.00 1023.3
20260503193004 -17 179 3.2 8.0 0.00 0.00 0.00 1023.2
20260503192501 -17 224 1.6 4.8 0.00 0.00 0.00 1023.3
20260503191956 -17 251 3.2 4.8 0.00 0.00 0.00 1023.3
20260503191454 -17 180 3.2 8.0 0.00 0.00 0.00 1023.5
20260503190950 -17 135 6.4 11.3 0.00 0.00 0.00 1023.5
20260503190447 -17 166 8.0 11.3 0.00 0.00 0.00 1023.8
20260503185944 -17 196 3.2 11.3 0.00 0.00 0.00 1023.7
20260503185441 -17 245 0.0 8.0 0.00 0.00 0.00 1023.8
20260503184940 -17 207 4.8 6.4 0.00 0.00 0.00 1023.9
20260503184437 -17 257 3.2 4.8 0.00 0.00 0.00 1024.0
20260503183933 -17 215 3.2 19.3 0.00 0.00 0.00 1024.2
20260503183430 -17 207 3.2 6.4 0.00 0.00 0.00 1024.3
20260503182927 -17 178 1.6 6.4 0.00 0.00 0.00 1024.3
20260503182426 -17 236 3.2 6.4 0.00 0.00 0.00 1024.4
20260503181923 -17 205 4.8 9.7 0.00 0.00 0.00 1024.6